Wetbulb
53.81 51.27 52.72 53.15 42.56 44.34 39.47 41.36 43.93 44.74 44.83 47.92 49.46 48.25 47.09 48.92 50.24 46.71 61.09 64.96 64.03 66.36 69.86 70.84 71.52 72.08 71.71 70.85 71.24 71.38 71.73 71.80 71.34 70.31 69.61 68.96 68.71 68.40 68.11 67.60 68.02 67.70 67.41 67.50 67.45 67.57 67.46 67.21 66.72
48.70 49.61 53.28 47.77 39.56 33.89 35.44 43.48 44.18 47.51 49.03 49.58 49.30 50.02 50.75 50.57 55.31 58.03 60.53 65.00 65.61 67.50 69.77 70.54 70.68 71.75 71.71 70.68 71.18 71.50 71.67 71.52 71.28 70.44 69.67 68.61 68.27 68.17 67.71 67.56 67.49 67.40 67.35 67.52 67.50 67.21 66.83 66.63 66.75
46.75 52.07 48.33 43.23 40.62 34.65 33.10 41.92 45.63 48.63 50.10 49.29 49.59 50.43 50.11 51.65 56.47 58.98 62.57 65.24 66.32 67.97 69.70 69.99 70.44 71.50 71.62 70.64 70.90 71.43 71.47 71.25 71.22 70.39 69.46 68.47 67.83 68.51 68.25 67.56 67.41 67.46 67.41 67.53 67.48 67.26 67.04 67.15 67.14
43.26 48.39 46.68 41.73 35.52 37.29 36.83 40.64 45.56 46.56 48.10 49.85 47.81 47.47 52.60 58.05 57.71 60.55 63.54 66.01 67.10 68.38 69.37 69.22 70.67 71.45 71.49 70.57 70.60 71.30 71.34 71.31 71.19 70.88 69.91 68.31 67.88 67.47 67.98 67.15 67.94 68.30 67.80 67.46 67.38 67.14 67.17 67.30 67.01
44.45 44.71 38.24 35.36 34.47 37.60 40.40 45.42 45.32 44.17 45.02 46.32 47.03 45.96 47.38 55.50 62.05 61.51 64.71 66.39 66.79 67.88 68.91 69.17 70.19 70.88 70.99 70.45 70.26 71.12 70.91 70.78 70.70 70.36 69.92 68.97 68.33 66.91 67.31 66.34 67.62 67.79 67.05 67.33 67.18 66.86 67.34 66.94 66.49
37.26 41.16 34.21 29.46 30.62 35.61 40.59 44.45 44.54 44.83 45.88 46.72 46.09 44.97 47.52 58.65 59.25 63.15 64.92 66.04 67.38 67.28 68.36 69.50 67.79 68.96 69.10 69.21 69.63 70.41 70.53 70.12 69.37 69.25 69.59 68.72 67.73 66.21 65.93 66.78 66.22 66.43 66.58 67.17 67.32 66.98 67.04 66.38 66.50
33.85 36.03 29.27 29.00 29.39 32.46 39.50 43.16 43.13 43.89 42.62 42.97 45.87 42.56 47.34 55.85 52.14 59.48 63.97 66.12 66.62 67.39 67.59 68.46 68.63 67.86 66.36 67.24 67.98 68.63 68.68 68.52 68.31 68.13 68.44 67.63 66.51 66.64 65.16 64.96 65.67 66.25 66.33 66.98 67.38 67.27 66.73 66.06 67.18
33.85 32.46 25.80 27.06 28.60 30.36 36.13 36.05 38.38 38.71 37.55 44.23 47.01 46.42 46.86 47.03 53.10 60.42 65.68 65.62 65.93 66.56 66.99 67.18 67.36 67.40 67.35 66.98 64.78 65.55 66.42 66.77 66.80 66.30 65.78 64.74 64.97 65.03 64.63 63.09 65.94 66.39 66.30 67.43 67.76 67.48 66.72 66.04 66.62
34.62 25.97 22.44 25.64 26.74 28.74 34.70 32.97 37.29 38.86 37.60 38.68 42.21 44.72 47.67 47.44 55.38 62.22 64.36 64.49 64.57 65.42 66.23 66.70 66.06 66.32 66.07 66.26 64.44 63.36 63.82 63.90 63.88 63.84 62.66 62.18 63.75 63.22 62.14 62.02 64.65 66.36 67.08 67.77 67.68 66.91 66.63 65.16 64.60
31.28 24.25 25.00 30.60 30.33 29.86 33.33 33.25 34.03 34.36 35.67 35.42 37.80 43.29 44.13 45.87 53.59 51.60 55.42 61.36 62.80 63.45 65.27 66.03 65.91 65.66 65.05 64.93 64.05 63.51 63.38 62.55 63.57 63.62 63.04 63.26 62.36 61.93 61.71 60.72 62.20 64.62 65.33 66.90 67.09 66.07 64.49 60.73 60.16
31.82 26.35 30.37 31.49 33.77 34.37 33.06 32.74 34.39 32.67 32.80 35.97 36.34 38.72 41.54 43.93 49.20 49.34 49.60 53.93 61.74 63.58 64.98 65.73 65.67 65.70 64.56 63.61 63.23 62.41 61.55 61.33 62.55 62.45 62.49 61.61 61.86 61.34 61.44 59.94 60.89 62.25 61.05 62.76 62.95 61.59 59.24 58.28 58.03
27.96 32.01 32.38 33.53 34.61 33.41 31.13 33.01 31.62 32.71 33.91 38.71 39.21 39.06 40.05 42.65 42.53 45.34 47.78 51.19 54.56 62.72 64.73 65.40 65.58 64.94 64.34 63.37 62.34 61.06 59.76 60.13 61.54 61.72 61.48 60.79 60.32 60.80 58.33 58.58 59.16 59.99 61.32 60.26 58.88 57.40 56.97 57.21 57.09
29.57 30.53 32.92 33.70 33.92 33.43 33.90 31.27 30.99 31.67 36.02 37.95 38.58 39.95 39.69 40.21 41.77 46.08 48.97 50.85 51.85 57.96 64.26 64.57 64.88 64.30 63.77 62.36 62.30 60.41 59.64 59.74 61.22 61.08 60.82 60.68 60.33 59.97 58.05 57.80 58.21 58.46 59.38 59.19 56.92 55.99 55.72 55.76 55.78
32.10 31.90 32.08 33.75 33.39 33.45 31.44 31.33 30.44 32.68 35.04 35.17 36.47 37.40 39.54 41.02 41.83 44.27 47.03 48.99 49.40 54.80 61.00 64.50 64.10 63.82 63.35 62.13 61.71 60.53 59.23 58.62 59.03 60.59 60.49 59.70 59.56 59.60 58.00 56.79 57.32 57.48 58.74 58.10 56.64 55.11 54.32 54.45 54.23
33.13 28.70 30.42 31.18 32.08 30.62 31.72 26.59 27.00 32.75 34.59 34.22 35.07 34.39 37.55 40.18 41.71 42.60 45.68 47.58 50.42 53.14 59.89 63.24 63.70 63.75 62.67 62.01 61.47 61.01 59.69 58.88 58.50 59.34 59.92 59.44 59.08 59.03 57.19 56.74 56.31 57.11 58.17 57.12 54.78 53.63 52.75 52.01 52.47
28.63 27.53 22.63 28.07 30.65 32.40 29.46 21.93 29.51 32.58 31.21 30.63 32.17 31.69 34.34 37.18 39.96 43.80 45.50 47.33 51.17 55.06 60.85 62.31 64.09 63.15 62.40 61.70 61.53 61.05 60.56 59.25 59.09 58.90 59.12 58.85 58.80 58.30 56.70 56.67 56.79 56.94 57.95 55.92 53.84 52.69 50.88 50.48 50.44
26.69 20.52 21.89 24.91 31.66 31.73 29.07 24.40 29.81 32.93 32.10 32.07 33.98 32.86 33.50 35.13 37.66 41.99 44.84 45.71 53.99 56.04 59.96 62.47 63.53 62.54 62.04 61.55 61.57 61.08 60.65 59.82 59.54 59.52 59.45 59.09 58.89 58.38 57.55 56.94 56.59 57.49 57.70 55.25 53.99 51.56 50.93 49.45 49.56
20.06 21.15 23.19 22.72 27.89 30.68 27.16 25.82 29.81 33.19 32.88 31.83 33.07 33.19 31.49 33.57 35.94 40.36 44.20 49.66 53.83 58.80 60.83 61.79 62.36 63.08 62.23 61.54 61.39 61.13 60.49 60.25 59.92 59.60 59.68 59.41 59.54 58.80 57.89 57.37 56.84 57.59 57.23 54.45 53.47 51.85 49.26 50.28 48.40
26.31 24.08 22.32 25.11 29.27 28.18 26.65 27.12 29.30 32.21 32.13 31.41 32.27 32.92 30.00 31.90 36.54 38.11 42.18 47.42 56.26 59.26 59.36 60.93 60.87 62.38 62.17 61.26 60.32 59.79 58.90 59.22 59.15 59.48 59.84 59.39 59.68 59.51 58.15 57.17 56.39 56.83 56.80 55.25 53.59 51.03 49.73 46.05 45.91
25.98 23.93 22.48 26.01 28.88 27.72 25.90 24.78 28.57 30.72 30.99 31.84 31.98 32.69 31.17 31.39 33.74 36.35 39.21 43.42 56.45 57.73 58.50 60.08 61.42 61.07 62.45 61.92 61.52 60.91 59.90 59.26 59.20 59.23 59.00 59.02 59.22 59.27 58.98 58.26 57.77 56.19 55.60 54.64 53.64 51.02 47.52 45.23 45.76
24.13 22.81 22.76 22.48 26.48 27.68 25.30 23.00 25.08 29.25 31.73 33.13 34.16 34.75 34.26 31.97 32.96 35.07 36.85 39.95 47.24 56.31 58.70 59.97 60.96 62.16 62.69 62.78 62.23 61.50 60.40 59.08 56.41 56.13 57.23 58.24 58.56 58.71 59.11 58.45 57.77 55.82 55.75 53.52 53.16 51.76 49.63 46.24 44.39
20.36 27.07 26.08 25.06 23.32 16.74 25.02 14.40 23.42 24.69 26.46 29.28 31.81 33.38 34.04 31.66 34.10 35.32 35.74 37.95 41.49 53.30 57.18 59.40 60.19 61.36 62.81 62.90 61.58 60.05 58.48 56.87 57.22 56.25 57.25 57.53 57.97 58.72 58.95 58.71 58.44 56.80 55.25 53.41 52.46 52.02 51.36 47.85 44.60
23.40 28.60 26.28 25.28 22.54 21.64 21.29 17.74 19.44 24.08 23.88 27.14 29.70 30.75 31.83 32.37 33.85 34.57 35.34 38.27 42.99 54.57 55.38 58.05 59.26 60.14 61.53 61.97 61.27 59.90 59.03 58.19 57.61 57.17 56.01 56.11 56.80 57.39 57.76 57.73 57.27 56.57 55.27 54.33 53.04 51.47 50.68 48.67 47.36
28.53 25.29 25.39 25.39 23.16 12.61 20.74 19.68 19.68 20.98 22.38 23.70 27.42 29.50 32.94 32.19 33.07 34.32 36.12 38.03 42.14 52.78 56.32 58.31 58.09 58.18 59.20 61.04 60.71 59.75 58.37 57.12 55.98 55.26 54.67 55.61 55.90 56.02 54.87 54.43 54.40 54.28 54.33 53.50 52.06 51.98 51.37 49.20 48.11
25.89 20.24 10.17 5.97 8.38 10.12 22.61 20.05 20.44 21.65 22.77 22.40 23.89 25.48 29.32 33.83 32.17 33.15 34.23 35.74 38.94 51.97 54.88 56.93 56.47 56.15 56.92 59.41 59.80 59.41 58.50 57.38 56.77 56.31 55.71 54.57 53.55 52.82 53.68 54.05 54.47 54.16 54.01 53.63 53.03 52.18 50.67 50.07 48.28
23.55 21.25 14.82 4.62 10.56 13.44 23.28 18.02 23.48 22.45 23.73 23.69 25.10 26.19 28.93 32.96 32.83 33.27 34.27 35.39 38.71 48.13 54.08 54.99 55.12 55.21 57.27 57.91 58.37 59.09 58.95 57.65 57.11 56.74 56.69 56.40 55.25 54.36 54.40 53.45 49.51 47.80 48.50 49.10 49.44 48.76 47.58 46.86 46.24
19.33 15.96 20.42 13.94 17.30 12.92 18.82 18.11 26.17 20.89 18.48 19.53 21.86 30.68 29.70 32.12 31.73 33.45 34.62 36.29 39.50 47.47 53.23 54.41 55.33 54.66 54.67 52.67 47.32 44.88 49.76 51.07 49.39 45.50 45.08 44.68 44.70 44.34 43.13 42.92 42.07 42.20 42.53 42.04 41.15 39.96 38.70 38.32 37.92
22.07 22.55 10.72 15.28 6.64 5.89 16.86 11.83 7.52 12.20 13.38 16.42 31.44 29.29 30.00 30.90 33.21 37.80 41.86 44.54 45.42 46.66 48.69 48.04 47.09 45.95 45.24 44.00 42.77 41.55 41.45 41.34 41.01 40.73 39.79 39.63 39.63 39.67 39.18 38.90 38.84 38.86 39.05 39.12 38.78 37.97 37.90 37.00 36.74
17.36 13.68 15.56 16.12 15.74 9.96 9.46 8.15 16.16 13.14 13.42 14.98 32.78 34.56 36.09 37.06 38.05 38.92 39.79 40.31 40.48 41.74 42.16 42.13 41.68 41.01 40.88 40.86 40.36 39.73 39.40 39.15 38.83 38.19 37.97 37.73 37.82 37.84 37.43 37.59 37.47 37.50 37.58 38.04 37.56 36.92 36.46 35.04 34.01
22.00 15.63 15.40 8.52 12.20 12.36 13.10 10.91 17.72 15.24 14.44 19.50 30.68 33.52 34.41 35.06 35.29 36.13 36.53 36.52 36.72 37.62 38.29 37.70 37.96 37.41 38.14 37.62 36.65 35.95 35.76 35.53 34.52 34.05 34.18 34.47 33.79 34.46 34.45 34.45 34.11 34.05 33.87 33.96 33.47 32.61 32.75 32.23 31.48
MSLP
1012.40 1012.06 1012.08 1012.24 1013.03 1012.35 1010.94 1010.39 1009.72 1009.18 1008.57 1007.38 1007.11 1007.09 1006.81 1006.59 1006.73 1006.26 1005.25 1005.17 1005.26 1005.72 1006.30 1007.02 1007.60 1008.08 1008.57 1009.22 1010.00 1010.47 1010.97 1011.28 1011.67 1012.04 1012.49 1013.08 1013.33 1013.49 1014.00 1014.17 1014.52 1014.77 1015.02 1015.33 1015.68 1015.90 1016.22 1016.45 1016.75
1012.56 1012.19 1012.33 1012.99 1013.39 1012.39 1009.91 1009.96 1009.30 1008.54 1007.74 1007.37 1007.05 1006.72 1006.72 1006.23 1005.85 1005.71 1005.68 1005.41 1005.35 1005.51 1006.14 1006.77 1007.39 1008.03 1008.45 1009.02 1009.70 1010.32 1010.89 1011.21 1011.62 1012.11 1012.42 1013.07 1013.54 1013.67 1013.88 1014.35 1014.54 1014.82 1015.11 1015.44 1015.76 1016.07 1016.39 1016.65 1016.84
1012.60 1012.74 1013.42 1013.57 1012.83 1010.72 1010.46 1009.67 1008.81 1008.35 1008.15 1007.92 1007.49 1006.45 1006.44 1005.97 1005.61 1005.50 1005.22 1005.37 1005.68 1005.78 1005.93 1006.60 1007.35 1008.08 1008.47 1009.10 1009.47 1010.10 1010.74 1011.13 1011.56 1012.18 1012.46 1012.97 1013.45 1013.83 1014.11 1014.40 1014.74 1014.90 1015.13 1015.46 1015.83 1016.16 1016.48 1016.69 1016.90
1012.96 1013.37 1014.16 1013.76 1011.52 1010.97 1010.45 1009.78 1009.28 1008.85 1008.28 1008.04 1007.62 1007.11 1006.29 1005.93 1005.83 1005.48 1005.15 1005.36 1005.76 1005.85 1006.10 1006.52 1007.10 1008.01 1008.54 1009.06 1009.49 1010.12 1010.58 1011.12 1011.59 1012.02 1012.45 1012.97 1013.46 1013.93 1014.29 1014.47 1014.84 1015.05 1015.29 1015.45 1015.83 1016.27 1016.60 1016.81 1016.96
1013.86 1014.33 1014.83 1013.76 1011.94 1011.72 1010.88 1010.31 1009.82 1009.51 1009.32 1008.58 1008.28 1007.56 1006.82 1005.84 1005.72 1005.38 1005.28 1005.56 1005.70 1006.01 1006.26 1006.59 1006.94 1007.72 1008.41 1009.03 1009.49 1010.10 1010.66 1011.01 1011.75 1011.93 1012.47 1012.93 1013.61 1013.87 1014.38 1014.84 1014.89 1014.96 1015.31 1015.60 1015.82 1016.23 1016.74 1016.97 1017.15
1014.75 1015.19 1015.26 1014.00 1012.85 1012.26 1011.55 1010.89 1010.43 1009.94 1009.65 1009.08 1008.56 1007.88 1006.84 1006.61 1006.66 1006.44 1005.92 1005.87 1005.98 1006.26 1006.73 1007.13 1007.25 1007.68 1008.10 1008.92 1009.50 1009.95 1010.60 1010.92 1011.69 1012.15 1012.55 1012.92 1013.59 1014.11 1014.56 1014.56 1014.93 1015.19 1015.29 1015.72 1016.00 1016.35 1016.77 1017.03 1017.18
1015.15 1015.61 1015.13 1014.07 1013.50 1012.98 1012.01 1011.17 1010.84 1010.46 1010.03 1009.60 1009.05 1008.47 1007.36 1006.92 1007.10 1006.99 1006.73 1006.36 1006.12 1006.50 1006.79 1007.24 1007.79 1007.92 1008.18 1008.66 1009.32 1009.89 1010.43 1010.95 1011.54 1012.12 1012.62 1012.97 1013.60 1014.31 1014.74 1014.83 1015.01 1015.38 1015.39 1015.79 1016.14 1016.51 1016.90 1017.17 1017.22
1015.35 1015.81 1015.58 1014.80 1014.00 1012.93 1012.35 1011.90 1011.80 1011.48 1010.72 1010.13 1009.34 1008.99 1008.70 1008.17 1007.19 1006.74 1006.58 1006.81 1006.37 1006.50 1006.94 1007.27 1007.60 1008.07 1008.33 1008.76 1009.41 1009.85 1010.41 1010.92 1011.41 1012.04 1012.54 1013.16 1013.53 1014.40 1014.96 1015.12 1015.21 1015.44 1015.51 1015.87 1016.25 1016.66 1016.96 1017.26 1017.41
1015.36 1016.15 1016.01 1014.96 1014.15 1013.28 1012.84 1013.04 1012.33 1011.87 1011.47 1010.94 1010.07 1009.76 1009.18 1008.57 1007.56 1007.21 1006.69 1006.73 1006.82 1006.58 1006.78 1007.25 1007.47 1007.98 1008.42 1008.82 1009.46 1010.02 1010.38 1010.99 1011.53 1012.07 1012.62 1013.14 1013.57 1014.23 1014.93 1015.27 1015.42 1015.56 1015.67 1015.90 1016.28 1016.81 1017.03 1017.33 1017.63
1015.67 1016.08 1015.34 1014.21 1013.96 1013.72 1013.48 1013.28 1012.92 1012.36 1011.60 1011.07 1010.48 1009.71 1009.26 1008.77 1008.15 1008.04 1007.88 1007.10 1006.74 1006.50 1006.29 1006.81 1007.33 1007.86 1008.60 1009.00 1009.53 1010.11 1010.46 1010.92 1011.36 1012.03 1012.62 1013.01 1013.54 1014.19 1014.69 1015.31 1015.40 1015.60 1015.80 1015.89 1016.26 1016.66 1017.10 1017.50 1017.90
1015.43 1015.44 1014.79 1014.34 1014.02 1013.87 1013.67 1013.35 1012.92 1012.54 1011.63 1011.12 1010.58 1010.23 1009.52 1009.00 1008.44 1008.16 1008.26 1008.15 1007.22 1006.59 1006.28 1006.30 1007.17 1007.71 1008.52 1009.18 1009.65 1010.18 1010.48 1010.91 1011.39 1011.93 1012.42 1012.99 1013.52 1014.21 1014.81 1015.33 1015.52 1015.64 1015.82 1016.01 1016.40 1016.74 1017.14 1017.52 1017.88
1015.62 1015.00 1014.74 1014.37 1014.09 1014.05 1013.91 1013.50 1013.04 1012.78 1011.60 1011.11 1010.62 1010.16 1009.66 1009.22 1008.56 1008.06 1007.95 1007.93 1007.42 1006.49 1006.26 1006.03 1006.61 1007.44 1008.16 1009.02 1009.80 1010.01 1010.60 1010.84 1011.36 1011.89 1012.42 1012.96 1013.73 1014.17 1014.84 1015.31 1015.62 1015.77 1015.91 1016.25 1016.52 1017.01 1017.37 1017.62 1017.89
1015.52 1014.92 1014.66 1014.40 1014.44 1013.89 1013.78 1013.30 1012.81 1011.81 1011.02 1010.72 1010.28 1009.94 1009.52 1008.92 1008.41 1007.83 1007.38 1007.29 1007.02 1006.48 1005.72 1005.73 1006.13 1006.79 1007.52 1008.68 1009.61 1009.97 1010.41 1010.70 1011.18 1011.74 1012.40 1012.91 1013.58 1014.28 1014.83 1015.28 1015.69 1015.89 1015.95 1016.36 1016.68 1017.18 1017.48 1017.72 1017.94
1014.79 1014.69 1014.49 1014.21 1013.79 1013.25 1013.36 1012.19 1012.64 1010.36 1010.55 1010.01 1009.81 1009.40 1009.07 1008.58 1007.98 1007.45 1006.96 1006.60 1006.46 1006.17 1005.52 1005.11 1005.67 1006.10 1006.80 1007.87 1009.01 1009.72 1010.19 1010.60 1011.23 1011.58 1012.21 1012.72 1013.52 1014.06 1014.68 1015.24 1015.55 1015.93 1016.01 1016.28 1016.68 1017.14 1017.45 1017.77 1018.04
1014.80 1014.36 1013.97 1013.56 1012.78 1012.64 1012.31 1011.73 1011.17 1010.49 1010.14 1009.98 1009.24 1009.26 1008.80 1008.21 1007.41 1006.84 1006.40 1006.09 1005.78 1005.32 1004.63 1004.99 1004.46 1004.92 1006.01 1007.11 1008.33 1009.18 1009.84 1010.54 1011.12 1011.48 1011.97 1012.73 1013.34 1014.04 1014.54 1015.13 1015.41 1015.71 1015.94 1016.29 1016.75 1017.12 1017.55 1017.93 1018.12
1014.94 1014.68 1013.50 1012.33 1012.33 1011.89 1012.08 1011.03 1010.51 1009.90 1009.71 1009.47 1009.16 1008.80 1008.62 1007.93 1007.16 1006.45 1005.89 1005.55 1005.22 1005.10 1004.52 1004.62 1003.48 1004.12 1005.31 1005.98 1007.59 1008.55 1009.49 1010.21 1010.92 1011.46 1012.01 1012.69 1013.37 1013.95 1014.48 1015.02 1015.31 1015.44 1015.84 1016.22 1016.73 1017.04 1017.52 1017.90 1018.20
1014.99 1014.07 1013.23 1012.17 1011.66 1011.63 1011.46 1010.56 1009.74 1009.35 1009.48 1009.34 1008.82 1008.37 1008.09 1007.63 1006.83 1006.03 1005.22 1004.80 1004.48 1004.20 1004.63 1003.68 1003.78 1002.68 1004.77 1005.86 1006.85 1008.02 1009.02 1009.72 1010.51 1011.15 1011.73 1012.36 1013.07 1013.69 1014.21 1014.60 1014.95 1015.19 1015.67 1016.16 1016.60 1016.97 1017.20 1017.83 1018.13
1014.70 1013.99 1013.15 1012.15 1011.56 1011.30 1010.99 1009.69 1009.45 1009.08 1009.16 1008.78 1008.21 1007.61 1007.60 1007.29 1006.46 1005.47 1004.94 1004.44 1004.23 1003.86 1003.40 1003.09 1003.33 1004.01 1003.98 1004.93 1007.02 1008.19 1008.90 1009.44 1010.01 1010.71 1011.16 1011.87 1012.52 1013.22 1013.89 1014.36 1014.70 1015.00 1015.48 1015.93 1016.44 1016.70 1017.12 1017.57 1017.67
1014.58 1014.05 1012.93 1011.32 1011.20 1011.01 1010.14 1009.01 1008.67 1008.32 1008.07 1007.73 1007.34 1006.98 1006.89 1006.70 1005.88 1005.19 1004.71 1004.44 1003.86 1003.73 1003.78 1003.79 1004.00 1003.84 1004.66 1004.86 1006.62 1007.81 1008.57 1009.24 1009.81 1010.44 1010.54 1011.22 1011.84 1012.54 1013.29 1014.05 1014.47 1014.84 1015.29 1015.55 1016.04 1016.61 1016.95 1017.58 1017.87
1014.35 1013.61 1011.99 1010.45 1010.32 1010.29 1009.19 1008.16 1007.67 1007.26 1006.79 1006.65 1006.45 1006.26 1006.26 1006.24 1005.75 1005.06 1004.59 1004.24 1003.79 1003.77 1003.13 1003.45 1003.49 1004.15 1003.97 1004.27 1006.16 1006.88 1007.91 1008.68 1009.06 1009.91 1010.27 1010.68 1011.18 1011.74 1012.48 1013.29 1013.80 1014.31 1014.93 1015.41 1015.76 1016.20 1016.71 1017.29 1017.69
1013.51 1013.12 1011.84 1011.28 1010.21 1009.79 1008.90 1007.78 1006.34 1005.57 1005.47 1005.48 1005.26 1005.09 1005.45 1005.52 1005.47 1004.79 1004.54 1003.93 1003.68 1003.62 1002.81 1003.53 1003.62 1003.98 1004.19 1004.29 1005.26 1006.32 1007.51 1008.67 1009.10 1009.68 1010.18 1010.45 1010.64 1011.34 1011.92 1012.44 1013.06 1013.59 1014.20 1014.58 1014.94 1015.59 1015.89 1016.50 1017.19
1013.03 1012.28 1012.00 1011.34 1010.97 1009.77 1009.26 1007.92 1006.27 1005.35 1005.19 1005.39 1005.12 1005.06 1004.77 1004.81 1004.73 1004.34 1004.21 1003.94 1003.26 1003.05 1002.47 1003.16 1003.74 1003.69 1003.80 1004.04 1003.64 1005.13 1006.15 1007.03 1007.56 1008.63 1009.26 1009.65 1010.03 1010.62 1011.31 1011.73 1012.17 1012.70 1013.46 1013.92 1014.20 1014.64 1015.17 1015.43 1016.32
1013.27 1012.22 1011.94 1011.13 1010.68 1010.30 1008.68 1009.11 1006.63 1006.31 1006.84 1007.00 1006.50 1005.76 1005.12 1004.71 1004.32 1003.89 1003.66 1003.40 1002.73 1002.31 1002.11 1002.93 1003.43 1003.63 1002.86 1003.83 1004.13 1005.19 1006.02 1006.62 1006.76 1007.88 1008.71 1009.63 1009.84 1010.32 1010.75 1011.18 1011.72 1012.22 1012.73 1013.08 1013.51 1014.09 1014.47 1014.76 1015.14
1013.17 1012.55 1010.65 1010.27 1010.35 1009.90 1008.37 1008.69 1008.04 1008.70 1009.55 1008.31 1007.53 1006.77 1006.01 1004.82 1004.14 1003.73 1003.22 1003.10 1002.53 1002.31 1003.28 1002.41 1003.20 1004.05 1003.73 1004.17 1003.97 1005.36 1005.74 1006.42 1006.62 1007.49 1008.47 1009.36 1009.78 1010.16 1010.50 1011.05 1011.58 1012.01 1012.33 1012.64 1012.89 1013.29 1013.74 1014.01 1014.13
1013.46 1012.84 1011.93 1011.19 1010.51 1009.57 1008.58 1008.93 1009.30 1009.98 1009.79 1009.90 1008.37 1007.22 1006.21 1005.15 1004.20 1003.76 1003.49 1003.30 1003.03 1003.01 1003.01 1002.67 1003.76 1004.22 1004.56 1004.62 1005.21 1006.00 1006.36 1006.18 1006.96 1007.60 1008.09 1008.89 1009.55 1010.30 1010.58 1010.96 1011.54 1011.66 1011.73 1012.06 1012.34 1012.78 1013.16 1013.75 1014.36
1014.54 1014.40 1013.99 1013.38 1011.43 1010.11 1008.93 1009.11 1009.15 1010.13 1009.97 1009.65 1008.07 1006.19 1005.49 1004.66 1003.92 1003.72 1003.65 1003.57 1003.34 1003.02 1003.24 1003.52 1004.11 1004.87 1005.33 1005.72 1005.74 1006.16 1005.95 1006.21 1006.46 1006.69 1007.99 1008.59 1009.01 1010.09 1010.72 1011.19 1012.02 1012.38 1012.48 1012.90 1013.33 1013.79 1013.93 1014.09 1014.46
1015.18 1015.11 1015.11 1014.31 1012.30 1011.74 1009.98 1010.67 1009.97 1011.42 1010.04 1008.35 1006.52 1003.95 1004.39 1004.05 1003.83 1003.78 1004.14 1004.19 1004.04 1004.20 1003.93 1004.54 1004.91 1005.69 1006.35 1006.53 1007.01 1007.71 1008.01 1007.91 1008.23 1009.14 1009.47 1010.77 1011.13 1011.76 1012.04 1012.45 1012.67 1013.20 1013.55 1013.77 1013.93 1014.15 1015.01 1015.57 1016.47
1017.05 1017.01 1015.70 1014.71 1013.78 1012.71 1011.98 1013.71 1015.74 1014.52 1013.57 1010.54 1006.94 1005.34 1005.30 1005.15 1005.05 1005.03 1005.19 1005.28 1005.31 1005.56 1005.63 1005.73 1006.43 1007.32 1008.32 1008.66 1008.71 1009.19 1011.47 1010.46 1010.51 1010.87 1011.75 1011.86 1012.25 1012.88 1013.53 1014.14 1013.85 1014.62 1015.13 1015.18 1015.24 1015.74 1015.91 1016.03 1017.02
1017.77 1017.77 1017.37 1016.59 1015.41 1015.12 1015.06 1016.97 1018.47 1018.07 1016.84 1013.71 1009.25 1007.62 1006.72 1006.85 1006.71 1006.72 1007.03 1007.04 1007.15 1007.34 1007.58 1008.09 1008.39 1009.11 1009.87 1010.36 1010.16 1011.20 1012.87 1012.43 1012.44 1012.74 1013.65 1013.62 1014.06 1014.96 1014.71 1015.75 1015.65 1016.28 1017.11 1016.92 1016.86 1017.19 1017.43 1017.80 1018.34
1019.44 1019.44 1018.85 1018.05 1017.06 1017.20 1017.41 1018.69 1019.28 1019.54 1018.06 1015.27 1011.75 1010.16 1009.17 1009.09 1008.86 1008.56 1008.90 1008.70 1009.06 1009.78 1009.85 1010.13 1010.75 1010.55 1011.55 1011.98 1012.14 1013.14 1014.31 1014.79 1015.01 1015.15 1015.48 1015.95 1016.02 1016.34 1017.02 1017.28 1017.42 1017.60 1017.90 1018.37 1018.57 1018.82 1019.39 1019.85 1020.12
Wind_Speed
10 7 1 4 2 3 8 7 2 4 2 3 1 3 7 10 6 6 6 12 7 15 17 20 25 25 25 23 21 20 21 21 21 22 22 20 21 21 20 18 17 17 17 16 16 15 15 13 12
6 5 4 2 2 7 9 9 11 12 6 7 2 4 3 9 3 5 3 8 13 18 17 18 23 25 25 25 22 21 22 22 21 22 23 21 20 20 20 18 17 17 17 17 16 16 14 13 12
4 2 3 4 6 19 7 5 18 11 6 4 7 2 4 4 1 4 5 9 12 16 17 17 22 24 24 24 23 21 22 22 21 22 22 21 20 18 18 18 17 17 17 16 16 15 14 13 11
4 5 4 6 20 4 3 2 4 5 4 6 2 9 4 2 4 4 4 12 13 15 16 18 23 23 23 24 23 21 22 22 22 22 23 21 20 19 17 18 16 15 16 16 15 14 13 13 11
4 3 2 7 14 5 6 5 4 6 4 4 2 6 6 6 7 2 8 11 15 16 14 15 23 23 23 23 23 21 21 21 19 20 21 21 18 19 18 17 16 15 15 15 15 15 13 11 9
3 2 4 8 7 4 5 7 6 4 4 5 6 5 5 5 15 6 4 10 12 13 10 13 17 22 23 23 22 21 21 20 18 17 18 21 18 19 18 17 17 16 16 14 14 14 11 9 8
5 4 5 6 3 4 2 6 4 7 5 2 6 4 4 7 16 11 4 7 10 10 10 11 12 16 20 22 21 20 21 20 19 17 17 19 18 15 17 17 17 16 15 13 13 12 11 9 9
5 3 3 3 2 6 4 7 8 7 4 10 3 1 6 9 16 7 5 6 10 10 10 10 11 11 13 14 15 15 17 17 18 15 15 14 14 13 10 15 12 14 14 11 11 10 10 10 10
3 2 4 7 5 5 7 7 5 5 5 4 6 3 5 12 9 8 6 8 8 9 12 12 12 11 10 11 12 12 14 14 14 12 13 13 8 10 9 7 9 12 11 11 11 9 8 8 8
3 4 8 7 3 4 6 4 4 6 10 6 12 5 8 10 5 9 11 7 12 14 15 15 12 11 10 9 10 8 10 9 10 10 10 8 8 7 7 7 9 8 9 10 12 10 8 6 3
3 6 4 3 5 5 4 5 3 5 17 6 12 11 10 8 7 3 8 9 12 14 11 16 14 13 12 10 7 5 5 6 6 10 10 7 7 6 5 3 3 3 6 3 6 5 4 6 5
4 7 6 4 3 5 5 6 8 10 17 14 13 8 7 8 9 10 7 9 9 12 15 15 16 13 13 7 7 7 6 5 6 7 9 7 4 6 4 3 3 3 4 4 4 3 4 5 5
9 8 8 8 7 10 9 14 13 15 17 14 13 14 10 9 10 10 10 8 10 9 16 16 16 16 15 12 8 7 8 6 8 8 8 7 6 5 5 4 3 3 3 3 4 4 4 5 5
4 5 8 9 14 13 13 21 5 16 12 15 11 11 11 15 14 13 11 10 8 10 9 17 17 18 18 14 13 8 6 6 6 8 8 9 6 6 5 4 4 3 3 3 4 4 4 4 4
6 12 16 16 17 12 9 12 11 14 12 15 16 8 11 15 14 13 12 13 6 11 9 17 17 19 18 16 14 10 8 7 7 7 7 8 7 7 6 5 4 4 4 5 4 4 3 3 2
5 5 7 2 3 7 7 16 10 10 8 10 12 8 10 14 15 13 13 11 8 10 11 13 14 16 21 20 14 10 9 8 8 7 7 9 7 7 6 5 5 4 4 4 4 4 4 3 4
5 9 12 15 7 8 10 16 7 6 5 12 17 11 9 9 11 12 13 13 11 11 11 12 16 17 19 17 12 13 14 10 8 8 8 10 10 9 7 6 5 6 5 4 5 2 4 3 3
10 15 15 18 5 9 14 18 13 17 12 15 17 14 9 8 12 10 9 10 11 8 5 9 8 6 17 13 10 8 9 9 9 9 9 11 9 10 8 5 5 6 5 4 4 4 2 2 4
15 17 24 23 17 17 19 21 20 20 16 16 17 15 9 9 12 9 9 8 9 9 8 8 11 11 12 11 10 10 10 9 8 8 12 12 11 11 10 6 6 6 7 7 7 3 5 2 3
13 19 22 21 12 11 17 22 19 17 16 17 17 17 10 6 8 10 9 6 6 9 8 8 11 10 16 12 12 9 10 8 9 9 10 12 13 13 11 10 9 9 6 7 8 6 3 3 6
14 13 19 20 17 10 18 17 16 17 20 19 18 18 11 10 10 11 7 9 5 8 8 9 11 14 15 11 12 9 8 4 4 5 6 10 11 11 11 11 9 9 8 8 10 10 9 7 5
11 4 10 13 12 6 6 9 12 6 11 10 15 15 15 10 10 10 7 9 8 7 5 7 8 4 12 14 16 16 12 10 7 9 8 8 12 13 13 12 11 11 9 9 10 9 8 5 7
10 14 17 19 15 13 8 6 7 6 10 15 14 10 6 9 11 12 9 9 9 6 4 6 5 3 6 5 11 10 11 9 7 8 10 8 8 9 10 10 11 10 9 10 11 10 11 7 5
15 12 20 9 6 4 4 8 3 6 13 17 16 16 14 9 9 8 8 6 6 2 4 7 6 5 7 3 5 9 12 9 8 7 8 7 5 6 7 6 6 5 7 8 9 10 10 10 8
17 15 5 6 2 5 5 5 6 17 22 19 22 19 16 13 8 8 8 6 6 4 5 8 8 5 5 4 5 3 5 7 7 7 6 6 4 3 5 5 6 6 8 8 8 9 9 7 5
15 8 5 6 4 7 7 3 4 22 28 22 21 23 14 13 8 7 7 5 5 1 5 7 8 8 4 5 8 10 12 5 6 7 6 4 2 2 4 4 9 10 9 7 6 5 5 5 4
10 8 16 6 10 5 3 8 2 31 35 38 37 4 7 7 7 6 5 2 6 4 5 4 6 9 11 15 16 20 16 13 13 16 15 9 10 8 12 12 11 10 10 10 10 9 10 11 9
10 12 6 3 4 5 6 7 11 30 35 36 19 12 11 10 11 12 12 14 14 15 14 16 18 18 16 16 17 20 15 17 16 16 17 15 14 14 13 13 14 13 12 10 11 9 10 12 8
11 9 5 6 4 4 5 3 12 21 27 28 18 19 21 18 17 16 15 16 18 18 19 17 18 20 19 17 20 21 18 18 18 18 17 17 18 15 17 15 15 14 11 12 12 12 12 13 11
9 14 5 3 5 4 3 3 20 22 24 24 21 19 20 18 17 19 18 21 21 19 18 19 18 21 18 18 20 22 18 18 18 18 19 18 18 18 16 16 17 16 16 15 15 15 14 13 13
Wind_Direction
333 318 27 19 26 248 228 229 192 195 236 197 165 188 199 202 195 215 328 176 140 153 161 164 162 160 156 154 155 155 154 152 152 149 149 153 148 146 149 147 143 144 141 140 140 136 135 132 131
330 338 39 85 190 244 239 207 230 218 226 337 320 289 268 248 248 303 97 229 160 158 164 165 164 163 158 156 158 159 158 155 156 154 151 154 153 151 149 149 148 148 147 145 143 141 139 139 138
342 50 93 161 215 234 257 198 241 243 261 294 314 211 271 259 273 220 236 163 166 164 163 163 163 165 160 158 159 159 159 156 152 154 151 158 155 154 152 150 153 152 149 148 146 144 144 143 140
20 17 15 242 240 291 211 317 340 324 322 237 255 278 296 277 292 236 173 158 163 165 167 161 163 167 163 160 162 162 161 159 158 160 153 156 160 160 151 156 157 154 153 151 148 147 147 146 144
27 65 240 251 266 289 303 299 315 270 324 284 15 269 291 305 325 213 149 163 168 169 169 164 164 164 161 161 163 163 161 158 167 157 156 154 162 162 159 162 163 159 156 150 148 151 150 149 150
50 96 225 246 263 329 309 266 267 267 236 287 286 297 256 48 18 336 168 165 171 166 163 172 162 160 157 162 165 165 164 160 163 162 159 156 168 168 169 163 165 164 158 154 151 152 151 152 157
130 142 231 285 260 293 257 342 343 303 321 281 312 256 287 356 342 315 255 177 166 162 159 168 167 162 162 162 165 166 165 163 160 169 162 159 156 165 175 170 167 170 164 157 156 153 153 152 151
110 109 310 264 350 280 24 358 341 7 298 315 322 359 326 309 323 287 192 186 168 160 165 169 175 164 163 163 161 161 162 160 160 172 159 147 147 155 170 176 166 172 169 162 155 150 156 158 151
123 90 216 237 219 264 348 5 314 297 262 332 302 308 274 306 355 318 180 183 183 166 178 176 177 176 169 163 164 161 161 161 160 151 145 144 154 155 168 166 174 177 176 161 152 148 156 154 160
147 181 225 210 201 277 298 296 315 319 309 287 284 315 324 323 5 5 327 230 201 189 184 178 176 164 166 165 165 167 171 166 166 159 155 151 143 148 164 171 177 176 177 171 156 148 148 110 121
222 221 247 275 276 266 247 285 259 284 282 230 305 302 309 313 313 331 304 292 264 212 191 176 176 165 168 170 168 173 163 167 149 152 153 145 147 148 160 166 178 180 157 137 123 130 134 137 132
279 247 251 287 325 306 286 298 275 260 267 268 259 262 288 285 297 296 276 271 290 244 204 176 171 165 166 162 172 170 164 163 153 159 157 153 151 161 153 158 172 172 157 146 133 138 147 143 142
246 258 256 267 292 276 265 258 260 267 271 272 275 273 257 271 270 279 270 248 263 285 215 181 171 169 165 159 174 167 171 164 168 161 162 159 159 161 151 160 165 181 148 151 140 148 153 156 156
233 267 275 283 277 268 266 267 213 248 249 259 258 262 268 275 276 278 270 260 266 271 264 188 181 172 165 165 167 168 162 155 162 171 173 164 157 159 164 163 173 179 171 156 145 162 166 175 161
269 281 284 265 260 256 226 264 235 248 255 257 262 255 255 257 263 260 259 260 247 281 260 232 182 171 167 169 165 163 162 156 167 175 170 161 156 172 164 172 170 181 176 157 131 132 125 138 146
281 254 283 137 179 242 160 272 270 242 241 265 276 261 254 258 260 264 260 255 231 256 247 258 187 177 170 168 168 166 165 163 170 164 159 164 165 170 166 178 192 173 167 163 165 151 146 155 166
195 267 263 293 238 252 192 265 231 258 255 282 282 271 254 262 266 263 263 256 225 234 221 237 207 190 178 163 166 170 168 168 172 166 169 174 175 177 179 185 189 172 175 172 173 154 141 165 150
287 286 283 282 282 270 271 256 264 276 264 252 265 268 248 255 261 260 268 267 243 223 230 245 216 154 162 154 159 170 172 173 170 178 177 174 180 180 183 188 181 179 177 168 175 152 121 168 160
273 281 284 279 283 278 266 261 257 261 255 248 251 258 238 237 259 267 273 281 230 210 183 208 211 195 158 157 171 173 177 176 176 186 178 177 186 185 184 185 167 179 191 186 178 144 158 137 151
282 282 279 282 283 275 270 268 266 255 249 238 240 251 238 214 258 268 277 287 233 205 175 206 216 226 173 160 174 173 178 189 179 186 183 184 187 186 190 185 188 182 179 180 180 173 142 127 184
281 270 281 279 307 261 270 276 260 253 245 245 242 240 235 205 228 254 257 273 244 219 175 173 209 186 209 183 160 156 151 147 140 170 186 196 189 189 190 189 183 181 192 193 186 192 180 173 196
300 311 291 288 306 295 75 297 299 259 245 237 247 249 235 207 215 237 233 264 265 226 175 177 180 181 204 184 167 172 173 177 176 182 189 190 180 186 193 194 198 188 194 190 197 184 202 150 177
267 292 284 278 269 289 268 237 279 15 10 357 351 321 264 229 219 225 218 234 256 250 155 161 152 156 244 177 160 169 184 187 165 171 179 188 183 186 194 197 193 193 194 201 194 194 198 204 172
275 294 292 268 241 250 258 199 325 23 345 328 324 321 320 272 228 237 230 240 267 267 222 110 115 101 58 106 161 173 193 169 154 153 161 177 190 193 181 173 186 194 198 199 201 204 211 209 206
334 335 315 350 9 228 350 190 57 4 353 333 318 307 298 295 239 223 230 216 254 214 162 119 129 104 102 122 102 24 201 173 171 175 168 165 148 188 202 185 213 207 212 212 205 209 207 217 226
321 332 320 309 313 314 271 301 119 3 347 327 306 287 261 268 234 207 225 235 242 231 136 124 149 133 148 178 162 205 198 196 184 181 176 165 134 37 47 73 55 42 45 38 31 19 35 63 78
316 337 303 254 257 237 245 358 307 349 340 341 327 135 192 239 195 173 115 6 5 355 144 143 83 63 35 42 56 44 18 37 50 60 54 50 63 57 64 57 66 57 59 66 76 82 68 55 37
345 348 348 337 316 324 41 63 344 344 336 327 354 47 44 41 56 59 58 51 46 45 59 66 71 69 66 65 68 63 25 51 56 58 61 60 60 54 57 59 61 53 46 58 73 70 66 83 83
5 358 315 289 273 335 334 87 359 347 331 324 30 54 64 65 69 69 61 59 55 52 54 59 63 68 64 63 66 67 55 52 57 59 55 57 62 56 56 53 61 62 55 51 61 61 60 56 57
30 1 335 262 29 319 306 76 8 351 337 346 19 40 58 59 60 62 63 63 57 55 59 60 63 69 62 69 70 62 61 59 61 61 64 56 62 61 60 58 57 56 55 52 57 60 55 56 55